Temperature
7 9 9 9 8 9 9 9 10 9 7 7 8 8 8 6 5 5 5 4 4 3 3 4 4 4 5 5 5 5 5 5 5 5 5 5 5 5 5 5 6 6 6 6
8 8 7 7 7 7 8 8 9 8 6 6 7 7 7 6 5 5 4 4 3 3 3 3 3 4 4 4 4 4 4 5 5 5 5 5 5 5 5 5 5 5 5 5
8 7 6 6 6 7 7 8 8 7 6 5 6 8 8 6 4 3 3 3 3 2 2 2 3 3 3 4 4 4 4 4 4 4 4 4 4 4 4 4 4 4 4 4
7 6 5 6 6 6 7 6 6 6 7 7 6 9 9 7 5 4 3 3 2 2 2 2 2 2 3 3 3 3 3 3 3 3 3 3 3 3 3 3 4 3 4 4
6 4 5 5 6 5 6 5 5 5 6 6 5 6 9 6 6 5 4 3 2 1 1 1 2 2 2 2 3 3 3 3 3 3 3 3 3 3 3 3 3 3 3 3
4 3 4 4 4 4 4 4 4 4 5 5 6 6 8 7 6 6 4 3 2 1 1 1 1 1 1 2 2 2 2 2 2 2 2 2 2 2 2 2 2 2 2 2
4 3 3 3 3 3 4 5 5 5 5 6 5 5 6 6 5 4 3 2 1 1 1 0 0 0 1 1 1 1 2 2 2 2 2 2 2 2 2 2 2 2 2 2
5 5 3 3 3 3 4 5 6 6 7 7 3 4 6 4 2 1 1 1 1 0 0 0 0 0 1 1 1 1 1 1 1 1 1 1 1 1 1 1 1 1 1 1
5 4 2 2 2 3 3 4 4 5 4 5 6 5 4 3 2 1 0 0 0 0 -0 -0 0 0 0 0 0 0 0 1 0 0 0 0 0 0 0 0 1 1 1 1
3 3 2 1 2 2 2 3 3 4 5 6 6 5 6 4 3 2 1 0 -0 -0 -0 -1 -0 -0 -0 -0 -0 -0 -0 -0 -0 -0 -0 -0 -0 -0 -0 -0 -0 0 0 0
1 1 1 1 1 2 1 1 2 4 4 5 6 6 4 4 3 2 1 -0 -1 -1 -1 -1 -1 -1 -1 -1 -1 -1 -1 -1 -1 -1 -1 -1 -1 -1 -1 -1 -1 -1 -0 -0
0 1 2 1 -0 -1 1 1 2 3 3 3 5 5 1 1 0 -0 -1 -1 -1 -1 -2 -2 -2 -1 -1 -1 -1 -1 -2 -2 -1 -1 -1 -2 -2 -2 -2 -1 -1 -1 -1 -1
-0 0 1 2 0 -1 -1 -1 -1 0 2 2 3 4 0 -1 -1 -2 -2 -2 -2 -2 -2 -2 -2 -2 -2 -2 -2 -2 -2 -2 -2 -2 -2 -2 -2 -2 -2 -2 -2 -2 -2 -2
-0 -0 1 3 2 0 -1 -1 -2 -1 1 2 2 3 2 1 0 -1 -2 -2 -2 -3 -3 -3 -3 -3 -3 -3 -3 -3 -3 -3 -3 -3 -3 -3 -3 -3 -3 -3 -3 -3 -3 -3
-1 -0 -1 -0 -0 -1 -1 -1 -2 -2 0 1 2 1 2 1 -1 -1 -2 -3 -3 -3 -3 -3 -3 -3 -3 -3 -3 -3 -3 -3 -3 -3 -3 -3 -3 -4 -4 -4 -4 -4 -4 -4
-2 -1 -2 -2 -1 -1 -1 -1 -1 -1 -0 -0 -0 -0 -0 -2 -2 -3 -3 -4 -4 -4 -4 -4 -4 -4 -4 -4 -4 -4 -4 -4 -4 -4 -4 -4 -4 -4 -4 -4 -4 -5 -4 -4
-2 -3 -2 -0 -2 -2 -1 -1 -2 -1 -2 -1 -0 0 -2 -2 -3 -3 -4 -4 -4 -4 -4 -4 -4 -4 -4 -4 -4 -4 -4 -4 -4 -4 -5 -5 -5 -5 -5 -5 -5 -5 -5 -5
-4 -3 -2 -2 -2 -1 0 -2 -2 -2 -3 -3 -3 -2 -3 -3 -4 -4 -4 -4 -4 -5 -5 -5 -5 -5 -5 -5 -5 -5 -5 -5 -5 -5 -5 -5 -5 -6 -6 -6 -6 -6 -6 -6
-4 -3 -2 -2 -1 -0 -1 -3 -3 -3 -3 -3 -4 -4 -4 -5 -5 -4 -4 -4 -5 -5 -5 -5 -5 -5 -5 -5 -5 -5 -6 -6 -6 -6 -6 -6 -6 -6 -6 -6 -6 -6 -6 -6
-5 -4 -3 -3 -2 -1 -1 -4 -5 -4 -3 -4 -5 -5 -5 -5 -3 -2 -5 -5 -5 -6 -6 -6 -6 -5 -5 -6 -6 -6 -6 -6 -7 -7 -7 -7 -7 -7 -7 -7 -7 -7 -7 -7
-5 -4 -4 -3 -2 -1 -4 -6 -5 -3 -2 -5 -6 -6 -6 -5 -5 -5 -6 -6 -6 -6 -6 -6 -6 -6 -6 -6 -7 -7 -7 -7 -7 -7 -7 -8 -8 -8 -8 -8 -8 -8 -8 -8
-4 -4 -4 -4 -3 -2 -6 -6 -5 -4 -6 -6 -6 -7 -7 -7 -7 -7 -7 -7 -7 -7 -7 -7 -7 -7 -7 -7 -7 -7 -8 -8 -8 -8 -8 -8 -8 -8 -8 -8 -8 -8 -8 -8
-5 -5 -4 -4 -3 -6 -7 -7 -7 -7 -7 -7 -7 -7 -7 -8 -8 -8 -8 -8 -8 -8 -7 -8 -8 -8 -8 -8 -8 -8 -8 -8 -8 -8 -9 -9 -9 -9 -9 -9 -9 -9 -9 -9
-7 -9 -7 -6 -6 -7 -8 -8 -8 -8 -8 -8 -8 -8 -8 -8 -8 -8 -8 -8 -8 -8 -8 -8 -8 -8 -8 -8 -9 -9 -9 -9 -9 -9 -9 -9 -9 -9 -9 -9 -9 -9 -9 -9
-7 -8 -7 -7 -8 -8 -8 -8 -8 -8 -8 -8 -8 -8 -8 -8 -9 -9 -9 -9 -9 -9 -8 -8 -9 -9 -9 -9 -9 -9 -9 -9 -9 -9 -9 -9 -9 -9 -9 -10 -10 -10 -9 -9
-9 -9 -7 -6 -8 -8 -8 -7 -8 -8 -8 -8 -8 -9 -9 -9 -9 -9 -9 -9 -9 -9 -9 -9 -9 -9 -10 -10 -10 -10 -10 -10 -10 -10 -10 -10 -10 -10 -10 -10 -10 -10 -10 -10
Wind_Speed
2 3 6 8 8 5 5 7 8 5 1 4 9 10 8 6 6 7 7 6 6 5 4 4 5 5 6 5 5 6 6 5 5 3 2 2 2 2 3 4 4 4 4 4
3 6 5 3 3 4 6 8 7 3 1 3 6 10 8 7 8 7 7 6 6 5 4 4 4 5 6 6 6 6 5 5 5 3 2 1 1 1 2 2 4 5 5 4
6 1 2 4 4 5 7 9 8 5 2 2 4 8 8 5 6 5 6 5 5 6 6 5 5 5 5 5 5 5 5 5 4 4 3 3 2 1 1 1 2 3 4 4
4 1 3 5 5 6 7 4 5 6 5 4 4 6 6 5 5 7 7 6 6 5 5 5 5 5 5 4 4 4 5 4 4 4 3 3 2 1 0 1 1 2 3 3
3 2 3 5 5 5 2 1 3 4 6 6 6 6 6 3 6 7 7 7 6 6 6 6 6 5 5 4 4 4 4 4 4 3 3 3 2 1 0 0 1 1 2 2
1 0 1 2 1 3 4 3 3 2 4 7 8 9 7 4 6 5 6 6 6 5 5 5 5 5 4 4 4 4 4 3 3 4 3 3 3 2 1 1 1 1 1 2
1 1 0 1 2 3 3 3 2 4 5 6 3 7 7 3 3 4 4 5 4 4 5 5 5 5 5 5 5 4 4 3 3 3 3 3 3 3 3 2 2 2 2 2
4 4 3 2 3 4 6 5 5 6 6 4 3 7 4 1 1 2 2 2 3 4 4 5 5 5 5 5 5 5 4 4 3 3 3 2 2 3 2 3 3 3 3 3
4 3 1 1 1 3 4 5 3 2 2 5 6 4 5 3 3 3 3 2 3 4 3 4 4 5 5 5 5 5 5 4 4 3 3 2 2 2 3 3 3 3 4 4
2 3 1 1 0 0 2 2 3 4 5 7 6 6 4 3 4 3 3 3 3 3 3 3 3 4 4 5 4 4 4 4 4 3 3 3 3 3 3 3 4 4 5 4
1 3 1 2 5 5 3 3 4 4 4 6 6 4 2 4 3 3 3 3 3 3 3 3 3 3 4 4 4 4 4 3 3 3 3 3 3 3 3 4 4 4 5 5
1 2 4 3 0 3 3 4 5 5 6 5 6 5 1 1 1 1 2 2 3 3 3 2 2 3 3 3 4 4 4 4 3 3 3 4 3 4 4 5 5 5 6 6
2 2 2 2 2 1 3 3 4 3 3 6 8 6 2 1 1 2 3 3 3 3 3 3 2 3 3 3 3 4 4 4 3 3 3 4 4 4 5 5 5 5 6 6
2 3 5 8 4 3 5 5 5 6 7 9 11 11 7 5 4 4 4 4 3 3 4 3 3 3 3 3 3 3 3 3 3 4 4 4 5 5 6 6 6 6 6 6
1 4 5 7 6 4 7 9 9 11 12 11 11 11 11 7 6 5 5 4 3 4 4 4 4 4 4 3 3 3 3 3 3 4 5 5 5 5 6 6 6 6 6 7
2 4 4 6 6 6 8 11 13 14 13 14 14 14 8 6 5 5 5 5 5 5 5 4 4 4 4 4 4 3 3 3 4 5 5 5 5 6 6 6 6 7 7 7
4 4 4 6 3 5 10 10 11 9 9 9 14 11 5 6 6 6 6 6 6 6 5 5 4 4 4 4 4 4 4 4 4 5 5 5 6 6 7 7 7 7 7 7
5 5 4 4 3 9 5 1 5 8 8 9 8 8 7 7 7 6 6 6 6 5 5 4 4 4 4 4 4 4 4 4 5 5 6 6 6 7 7 7 7 8 7 8
5 5 4 4 6 9 5 3 3 6 7 6 9 8 6 5 5 5 3 4 4 4 4 4 4 4 4 4 3 3 4 4 5 5 6 6 7 7 7 8 8 8 8 8
1 4 4 4 6 8 4 1 1 2 5 2 5 6 5 4 6 5 3 4 4 4 3 3 3 3 3 4 3 3 4 5 6 6 6 7 7 8 8 9 8 8 8 9
2 3 6 7 7 7 2 1 3 4 3 3 4 5 5 5 6 6 5 5 4 4 3 3 3 3 4 3 3 4 5 5 5 5 6 7 7 8 8 8 8 8 8 8
5 4 5 5 7 6 1 3 4 3 4 5 5 5 5 6 6 5 5 4 3 3 4 3 3 3 4 3 3 4 5 5 5 5 6 6 7 7 7 7 8 8 8 8
6 5 4 5 5 2 2 3 3 3 5 6 5 5 5 5 6 5 5 4 4 4 4 3 3 3 4 4 3 5 5 5 4 5 6 6 6 6 6 7 7 7 7 7
3 2 4 5 6 6 5 5 5 5 6 6 6 5 5 6 5 5 4 4 4 4 4 3 3 3 4 4 4 5 5 5 4 5 6 5 5 6 6 5 6 6 7 7
4 4 4 6 6 6 6 6 6 6 6 6 5 5 6 5 5 4 4 4 4 4 4 3 3 3 5 5 5 5 5 4 5 5 5 5 5 5 5 6 6 7 8 9
4 4 5 6 5 5 7 7 6 6 6 6 5 5 5 4 4 4 3 3 3 3 4 3 3 4 4 4 5 5 5 4 4 4 5 4 4 4 5 5 6 8 10 12
Wind_Direction
155 191 212 216 222 250 233 233 243 248 220 232 235 250 257 237 228 226 220 212 209 206 189 172 166 161 153 147 145 142 139 133 128 129 130 121 97 71 58 47 36 34 32 26
175 224 235 224 219 228 227 234 246 246 242 255 258 263 258 236 226 227 219 211 202 190 169 161 159 156 160 156 152 148 148 141 139 134 130 121 117 89 66 49 37 28 23 18
206 223 187 187 198 222 230 236 243 244 264 232 279 266 233 217 210 218 217 213 203 193 182 169 166 165 161 160 163 159 153 149 146 135 121 110 107 101 70 29 26 19 13 10
219 211 180 198 214 221 241 242 239 233 235 245 241 269 243 210 214 217 217 210 206 195 186 175 174 174 174 171 165 160 157 156 151 146 149 151 156 150 319 344 358 360 4 1
203 200 197 216 229 223 236 127 211 229 231 251 227 248 260 203 230 229 217 210 207 198 191 186 183 182 178 170 167 162 157 160 158 161 168 172 179 182 160 275 333 339 348 349
225 242 249 240 306 185 136 120 120 173 215 243 227 228 260 218 229 226 211 208 206 201 196 193 184 178 175 171 169 167 160 158 170 174 181 189 192 194 196 240 282 300 310 318
239 202 96 134 125 153 178 175 202 211 219 239 182 225 253 252 229 228 220 208 202 200 197 193 186 183 181 180 179 180 176 176 179 186 197 205 209 209 213 231 252 273 284 287
227 233 195 208 210 197 203 210 219 233 239 241 200 232 253 296 259 247 245 228 208 204 201 203 200 195 192 191 190 193 194 195 196 203 215 220 226 227 232 237 247 255 267 274
227 238 64 321 317 192 188 216 248 254 278 260 236 245 277 241 244 229 221 220 214 208 208 214 210 205 201 200 202 205 205 208 210 213 218 225 230 239 247 248 249 255 263 272
233 248 259 317 193 324 274 179 179 211 235 249 247 245 241 216 216 204 207 212 216 215 221 224 222 220 211 208 210 211 215 217 218 217 222 230 234 243 250 254 258 257 260 266
218 224 235 205 209 210 177 194 220 221 243 247 255 246 221 216 204 210 224 234 233 232 236 233 234 225 214 207 205 211 216 219 222 225 230 235 239 244 250 251 257 264 267 263
194 226 243 236 27 341 229 218 201 219 230 233 255 263 63 223 246 238 250 257 252 246 249 246 244 231 218 212 210 214 219 220 226 233 236 241 245 248 253 256 259 262 265 265
158 188 242 227 202 205 237 242 235 247 238 229 239 251 88 93 323 275 263 267 266 258 258 254 248 242 234 228 223 224 226 227 229 232 238 244 249 252 257 260 260 258 259 262
170 212 237 251 273 221 236 237 221 213 230 241 242 256 271 283 292 288 277 271 264 259 256 258 255 250 246 242 235 230 235 234 233 234 240 247 252 255 260 262 259 256 256 256
195 237 243 270 278 251 250 243 221 219 232 243 253 255 268 279 284 288 281 271 261 260 259 261 264 261 252 250 249 242 241 241 240 242 248 254 259 259 260 261 260 257 256 256
203 234 242 261 259 259 265 254 237 234 240 246 261 267 274 288 290 285 275 261 259 264 266 270 272 264 256 254 253 252 250 250 249 249 254 260 261 261 260 261 260 258 256 256
197 204 233 254 272 277 260 244 229 228 229 235 248 261 282 283 278 274 270 260 257 261 265 269 274 267 264 259 254 252 253 256 254 256 260 261 261 261 261 261 259 258 257 256
200 208 231 255 248 245 258 160 212 225 242 238 251 267 266 270 285 284 269 256 257 261 265 270 272 275 275 268 260 258 255 253 254 258 261 262 262 263 263 261 258 258 258 255
216 208 217 225 244 262 268 247 217 221 255 247 247 263 282 297 294 281 264 261 269 273 276 276 276 278 278 269 260 257 258 258 258 260 263 263 262 261 260 258 258 259 258 257
143 200 215 221 242 255 273 299 260 201 259 258 236 254 279 290 272 286 313 303 300 297 294 292 291 288 279 276 261 254 259 261 261 265 267 266 262 259 258 258 260 261 258 256
186 198 218 232 247 264 308 302 165 217 280 340 278 270 263 260 276 301 306 300 302 305 304 301 293 284 283 280 261 261 265 266 272 274 272 269 265 262 261 261 260 260 259 258
203 202 211 217 237 254 81 147 201 266 328 313 296 283 271 282 294 296 295 296 300 306 307 301 295 294 295 284 263 268 274 280 281 277 274 272 270 267 262 260 260 258 255 256
223 229 233 222 242 310 188 222 263 299 295 296 291 287 281 281 285 288 290 293 295 295 298 299 292 295 296 289 271 271 282 286 285 283 279 277 274 270 263 258 258 258 254 253
235 251 240 256 260 270 268 275 286 291 289 292 290 284 283 279 279 281 282 290 294 296 299 299 294 289 292 295 291 282 285 287 283 281 282 279 276 273 268 263 258 255 254 254
256 213 235 256 274 289 270 264 281 291 294 296 294 288 279 272 273 273 277 284 289 298 304 296 280 283 291 297 299 297 291 285 283 283 281 282 280 276 273 269 265 262 259 256
236 229 234 257 263 265 277 285 284 284 287 288 292 296 293 276 268 276 278 282 288 294 302 297 294 292 295 299 300 301 296 286 283 287 287 287 285 281 277 279 282 274 270 271
Height
1497 1497 1494 1494 1497 1495 1495 1494 1492 1495 1502 1502 1497 1496 1497 1499 1501 1500 1500 1501 1501 1502 1504 1504 1506 1507 1509 1510 1512 1514 1515 1517 1519 1521 1523 1524 1525 1526 1527 1527 1528 1529 1529 1529
1496 1495 1496 1498 1499 1499 1497 1495 1494 1498 1503 1502 1498 1495 1494 1496 1496 1497 1497 1498 1499 1500 1501 1502 1503 1504 1506 1508 1510 1512 1513 1515 1517 1519 1520 1522 1523 1524 1524 1525 1526 1526 1527 1527
1491 1495 1498 1499 1499 1498 1496 1494 1494 1497 1502 1503 1500 1488 1488 1490 1494 1495 1495 1496 1497 1497 1498 1499 1501 1502 1504 1506 1508 1509 1511 1513 1515 1517 1518 1520 1521 1521 1522 1523 1523 1524 1524 1524
1494 1497 1498 1497 1496 1496 1493 1497 1498 1500 1498 1493 1498 1483 1478 1484 1489 1490 1491 1493 1494 1495 1496 1497 1498 1500 1501 1504 1506 1508 1510 1511 1513 1514 1516 1517 1518 1518 1519 1520 1520 1521 1521 1522
1494 1497 1497 1496 1496 1497 1496 1500 1500 1500 1498 1497 1497 1494 1475 1483 1484 1484 1487 1489 1491 1492 1493 1495 1496 1498 1500 1502 1504 1506 1508 1509 1510 1512 1513 1515 1516 1516 1517 1517 1518 1518 1518 1519
1497 1499 1499 1497 1499 1499 1501 1501 1502 1501 1498 1495 1489 1489 1472 1478 1479 1480 1484 1486 1488 1490 1491 1493 1495 1496 1498 1499 1501 1503 1504 1506 1508 1509 1510 1512 1513 1513 1514 1514 1515 1515 1515 1515
1495 1498 1499 1499 1498 1500 1499 1496 1493 1492 1491 1481 1491 1489 1476 1476 1479 1480 1482 1484 1486 1488 1489 1491 1492 1493 1495 1496 1498 1500 1501 1502 1504 1506 1507 1508 1509 1510 1510 1511 1511 1511 1511 1512
1490 1490 1496 1498 1496 1496 1496 1493 1488 1483 1477 1475 1495 1485 1475 1479 1480 1481 1482 1483 1484 1486 1487 1488 1489 1490 1492 1493 1495 1496 1498 1499 1501 1502 1503 1504 1505 1506 1507 1507 1508 1508 1508 1508
1487 1489 1498 1499 1498 1496 1495 1492 1493 1490 1490 1485 1475 1480 1478 1477 1479 1480 1481 1482 1483 1484 1485 1486 1487 1488 1489 1490 1492 1493 1494 1496 1497 1498 1500 1500 1501 1502 1503 1503 1503 1504 1504 1504
1493 1494 1497 1499 1499 1499 1497 1494 1494 1490 1483 1474 1469 1473 1470 1472 1475 1478 1479 1480 1481 1482 1483 1484 1485 1485 1486 1488 1489 1490 1492 1493 1493 1494 1496 1497 1497 1498 1499 1499 1499 1499 1500 1500
1496 1496 1498 1499 1497 1494 1498 1498 1493 1486 1483 1474 1466 1466 1470 1471 1473 1476 1478 1479 1480 1480 1481 1482 1482 1483 1484 1485 1486 1487 1488 1489 1490 1490 1492 1493 1493 1494 1494 1494 1494 1495 1495 1495
1496 1494 1492 1494 1499 1500 1497 1494 1493 1487 1484 1483 1472 1470 1474 1475 1476 1477 1478 1479 1479 1479 1479 1479 1479 1480 1481 1481 1482 1483 1485 1485 1486 1487 1488 1488 1489 1489 1490 1490 1490 1490 1490 1490
1496 1496 1490 1488 1497 1501 1500 1497 1497 1494 1487 1481 1474 1470 1476 1476 1477 1478 1478 1478 1477 1477 1477 1477 1477 1477 1477 1478 1479 1480 1480 1481 1482 1483 1483 1484 1484 1484 1485 1485 1485 1485 1485 1484
1494 1494 1489 1481 1479 1489 1494 1495 1496 1493 1483 1476 1473 1468 1472 1473 1475 1476 1476 1476 1476 1476 1475 1475 1475 1474 1474 1475 1475 1476 1476 1477 1478 1478 1479 1479 1479 1480 1480 1480 1480 1480 1479 1479
1494 1492 1491 1489 1488 1489 1488 1488 1490 1490 1481 1476 1469 1471 1469 1472 1474 1474 1474 1474 1473 1473 1473 1472 1472 1471 1471 1471 1472 1472 1472 1473 1474 1474 1474 1475 1475 1475 1475 1474 1474 1474 1474 1474
1494 1492 1492 1490 1489 1488 1486 1482 1482 1482 1480 1476 1474 1472 1471 1473 1473 1473 1472 1471 1470 1470 1469 1469 1469 1468 1468 1468 1468 1468 1468 1469 1470 1470 1470 1470 1470 1470 1469 1469 1469 1469 1468 1468
1491 1493 1489 1481 1488 1487 1477 1475 1477 1476 1475 1474 1469 1466 1470 1471 1470 1469 1469 1468 1467 1466 1466 1466 1465 1465 1465 1465 1465 1465 1465 1465 1465 1465 1465 1465 1465 1464 1464 1464 1463 1463 1462 1462
1490 1489 1487 1483 1487 1480 1465 1472 1472 1472 1472 1472 1470 1468 1469 1469 1467 1466 1465 1464 1464 1464 1463 1462 1462 1462 1462 1461 1461 1461 1461 1461 1460 1460 1460 1460 1459 1458 1458 1458 1457 1457 1457 1456
1487 1487 1484 1482 1475 1466 1467 1471 1472 1472 1468 1468 1468 1467 1467 1466 1464 1462 1461 1461 1461 1460 1460 1459 1459 1458 1458 1458 1457 1457 1456 1456 1456 1455 1455 1454 1454 1453 1452 1452 1452 1451 1451 1450
1487 1486 1483 1480 1473 1466 1463 1470 1470 1472 1465 1465 1465 1465 1465 1465 1461 1458 1458 1458 1457 1457 1456 1455 1455 1455 1454 1454 1453 1453 1452 1451 1451 1450 1450 1449 1448 1447 1446 1446 1446 1445 1445 1444
1485 1483 1481 1477 1471 1462 1469 1470 1471 1468 1460 1464 1463 1463 1463 1462 1460 1458 1455 1454 1454 1453 1453 1452 1451 1451 1450 1450 1449 1448 1448 1447 1446 1445 1444 1444 1443 1442 1441 1440 1440 1439 1438 1437
1477 1476 1478 1476 1471 1465 1470 1470 1469 1464 1463 1462 1461 1460 1460 1458 1456 1455 1453 1452 1451 1450 1449 1448 1448 1447 1447 1446 1445 1444 1443 1443 1442 1440 1439 1438 1437 1436 1435 1434 1434 1433 1432 1431
1477 1474 1470 1470 1467 1468 1467 1466 1465 1464 1462 1460 1459 1458 1457 1455 1453 1452 1451 1449 1448 1447 1446 1446 1445 1444 1443 1443 1442 1440 1439 1438 1437 1436 1434 1433 1432 1431 1430 1429 1428 1427 1426 1425
1474 1476 1474 1471 1466 1466 1465 1464 1463 1462 1460 1458 1456 1455 1454 1452 1451 1449 1448 1447 1445 1445 1444 1443 1442 1440 1439 1439 1438 1437 1435 1434 1433 1431 1430 1428 1427 1425 1424 1423 1422 1421 1420 1418
1471 1473 1470 1467 1465 1464 1461 1461 1460 1458 1457 1455 1453 1452 1451 1450 1448 1446 1445 1444 1443 1442 1441 1440 1439 1438 1436 1435 1434 1433 1432 1430 1429 1427 1425 1424 1422 1421 1419 1418 1417 1415 1413 1412
1469 1469 1466 1460 1461 1461 1459 1457 1457 1455 1454 1452 1451 1449 1448 1447 1445 1443 1442 1441 1440 1439 1438 1437 1436 1435 1433 1432 1430 1429 1428 1427 1425 1423 1421 1420 1418 1416 1415 1413 1411 1409 1408 1405